| time (UTC) | temp C | wind direction | speed KPH | gust KPH | rain 1hr cm | rain 24hr cm | rain mn cm | humidity % | barometer mb |
| 20260507003024 | 13 | 250 | 1.6 | 4.8 | 0.00 | 0.20 | 0.00 | 96 | 1007.1 |
| 20260507002045 | 13 | 273 | 1.6 | 3.2 | 0.00 | 0.20 | 0.00 | 95 | 1007.1 |
| 20260507001046 | 13 | 322 | 1.6 | 3.2 | 0.00 | 0.20 | 0.00 | 95 | 1006.9 |
| 20260507000045 | 13 | 245 | 3.2 | 4.8 | 0.00 | 0.20 | 0.00 | 95 | 1006.9 |
| 20260506235101 | 13 | 236 | 3.2 | 4.8 | 0.00 | 0.20 | 0.20 | 95 | 1006.9 |
| 20260506234026 | 13 | 236 | 3.2 | 4.8 | 0.00 | 0.20 | 0.20 | 95 | 1006.8 |
| 20260506233026 | 13 | 244 | 3.2 | 4.8 | 0.00 | 0.20 | 0.20 | 95 | 1006.7 |
| 20260506232026 | 14 | 256 | 3.2 | 4.8 | 0.00 | 0.20 | 0.20 | 95 | 1006.7 |
| 20260506231026 | 14 | 234 | 1.6 | 3.2 | 0.00 | 0.20 | 0.20 | 94 | 1006.7 |
| 20260506230026 | 14 | 225 | 1.6 | 3.2 | 0.00 | 0.20 | 0.20 | 94 | 1006.7 |
| 20260506225047 | 14 | 309 | 1.6 | 4.8 | 0.00 | 0.20 | 0.20 | 94 | 1006.7 |
| 20260506224026 | 14 | 206 | 1.6 | 6.4 | 0.00 | 0.20 | 0.20 | 94 | 1006.7 |
| 20260506223107 | 14 | 255 | 3.2 | 8.0 | 0.00 | 0.20 | 0.20 | 95 | 1006.6 |
| 20260506222027 | 14 | 299 | 3.2 | 4.8 | 0.00 | 0.20 | 0.20 | 95 | 1006.6 |
| 20260506221048 | 14 | 346 | 3.2 | 6.4 | 0.00 | 0.20 | 0.20 | 95 | 1006.6 |
| 20260506220018 | 14 | 239 | 1.6 | 8.0 | 0.00 | 0.20 | 0.20 | 95 | 1006.8 |
| 20260506215019 | 15 | 231 | 3.2 | 8.0 | 0.00 | 0.20 | 0.20 | 95 | 1007.0 |
| 20260506214019 | 15 | 229 | 1.6 | 11.3 | 0.00 | 0.20 | 0.20 | 95 | 1007.0 |
| 20260506213016 | 15 | 229 | 1.6 | 4.8 | 0.00 | 0.20 | 0.20 | 94 | 1007.1 |
| 20260506212016 | 15 | 224 | 3.2 | 8.0 | 0.00 | 0.20 | 0.20 | 93 | 1007.2 |
| 20260506211020 | 15 | 214 | 3.2 | 6.4 | 0.00 | 0.20 | 0.20 | 93 | 1007.4 |
| 20260506210020 | 15 | 220 | 1.6 | 6.4 | 0.00 | 0.20 | 0.20 | 93 | 1007.5 |
| 20260506205017 | 15 | 210 | 3.2 | 9.7 | 0.00 | 0.20 | 0.20 | 93 | 1007.5 |
| 20260506204017 | 15 | 242 | 1.6 | 6.4 | 0.00 | 0.20 | 0.20 | 93 | 1007.5 |
| 20260506203018 | 15 | 210 | 3.2 | 9.7 | 0.03 | 0.20 | 0.20 | 93 | 1007.6 |
| 20260506202017 | 15 | 203 | 3.2 | 9.7 | 0.05 | 0.20 | 0.20 | 94 | 1007.6 |
| 20260506201100 | 15 | 234 | 1.6 | 4.8 | 0.08 | 0.20 | 0.20 | 94 | 1007.6 |
| 20260506200017 | 15 | 207 | 3.2 | 8.0 | 0.10 | 0.18 | 0.18 | 93 | 1007.9 |
| 20260506195038 | 15 | 205 | 3.2 | 6.4 | 0.13 | 0.18 | 0.18 | 93 | 1007.9 |
| 20260506194018 | 15 | 248 | 3.2 | 11.3 | 0.13 | 0.18 | 0.18 | 92 | 1007.9 |
| 20260506193018 | 15 | 215 | 3.2 | 8.0 | 0.15 | 0.18 | 0.18 | 91 | 1007.9 |
| 20260506192038 | 15 | 221 | 3.2 | 8.0 | 0.13 | 0.13 | 0.13 | 90 | 1008.0 |
| 20260506191018 | 15 | 199 | 1.6 | 6.4 | 0.10 | 0.10 | 0.10 | 88 | 1008.1 |
| 20260506190019 | 15 | 207 | 4.8 | 8.0 | 0.08 | 0.08 | 0.08 | 88 | 1008.2 |
| 20260506185018 | 16 | 251 | 1.6 | 8.0 | 0.08 | 0.08 | 0.08 | 86 | 1008.4 |
| 20260506184018 | 16 | 208 | 3.2 | 8.0 | 0.05 | 0.05 | 0.05 | 82 | 1008.5 |
| 20260506183019 | 17 | 224 | 3.2 | 9.7 | 0.03 | 0.03 | 0.03 | 77 | 1008.6 |
| 20260506182019 | 17 | 211 | 3.2 | 9.7 | 0.00 | 0.00 | 0.00 | 75 | 1008.7 |
| 20260506181016 | 18 | 219 | 3.2 | 8.0 | 0.00 | 0.00 | 0.00 | 71 | 1008.8 |
| 20260506180016 | 18 | 231 | 3.2 | 9.7 | 0.00 | 0.00 | 0.00 | 69 | 1008.8 |
| 20260506175016 | 19 | 275 | 3.2 | 11.3 | 0.00 | 0.00 | 0.00 | 68 | 1008.8 |
| 20260506174020 | 20 | 207 | 4.8 | 9.7 | 0.00 | 0.00 | 0.00 | 66 | 1008.9 |
| 20260506173020 | 20 | 221 | 4.8 | 9.7 | 0.00 | 0.00 | 0.00 | 65 | 1008.9 |
| 20260506172017 | 20 | 224 | 3.2 | 12.9 | 0.00 | 0.00 | 0.00 | 63 | 1009.0 |
| 20260506171018 | 20 | 211 | 4.8 | 12.9 | 0.00 | 0.00 | 0.00 | 63 | 1008.9 |
| 20260506170038 | 20 | 227 | 3.2 | 11.3 | 0.00 | 0.00 | 0.00 | 65 | 1009.0 |
| 20260506165017 | 21 | 218 | 4.8 | 14.5 | 0.00 | 0.00 | 0.00 | 64 | 1009.0 |
| 20260506164016 | 20 | 224 | 4.8 | 14.5 | 0.00 | 0.00 | 0.00 | 64 | 1009.1 |
| 20260506163036 | 20 | 205 | 3.2 | 9.7 | 0.00 | 0.00 | 0.00 | 64 | 1009.3 |
| 20260506162018 | 20 | 216 | 4.8 | 16.1 | 0.00 | 0.00 | 0.00 | 63 | 1009.5 |
| 20260506161018 | 20 | 111 | 3.2 | 11.3 | 0.00 | 0.00 | 0.00 | 64 | 1009.5 |
| 20260506160019 | 20 | 228 | 4.8 | 12.9 | 0.00 | 0.00 | 0.00 | 64 | 1009.7 |
| 20260506155017 | 21 | 247 | 4.8 | 9.7 | 0.00 | 0.00 | 0.00 | 62 | 1009.7 |
| 20260506154017 | 21 | 217 | 3.2 | 11.3 | 0.00 | 0.00 | 0.00 | 63 | 1009.9 |
| 20260506153017 | 21 | 221 | 4.8 | 12.9 | 0.00 | 0.00 | 0.00 | 62 | 1009.9 |
| 20260506152016 | 21 | 227 | 4.8 | 16.1 | 0.00 | 0.00 | 0.00 | 63 | 1010.0 |
| 20260506151017 | 20 | 225 | 4.8 | 9.7 | 0.00 | 0.00 | 0.00 | 65 | 1010.1 |
| 20260506150020 | 20 | 222 | 4.8 | 11.3 | 0.00 | 0.00 | 0.00 | 66 | 1010.2 |
| 20260506145018 | 19 | 193 | 3.2 | 6.4 | 0.00 | 0.00 | 0.00 | 67 | 1010.3 |
| 20260506144059 | 19 | 224 | 3.2 | 6.4 | 0.00 | 0.00 | 0.00 | 67 | 1010.3 |
| 20260506143018 | 19 | 197 | 1.6 | 4.8 | 0.00 | 0.00 | 0.00 | 67 | 1010.2 |
| 20260506142019 | 19 | 215 | 3.2 | 8.0 | 0.00 | 0.00 | 0.00 | 68 | 1010.2 |
| 20260506141018 | 19 | 201 | 3.2 | 6.4 | 0.00 | 0.00 | 0.00 | 68 | 1010.1 |
| 20260506140018 | 19 | 205 | 3.2 | 4.8 | 0.00 | 0.00 | 0.00 | 69 | 1010.2 |
| 20260506135019 | 18 | 230 | 3.2 | 9.7 | 0.00 | 0.00 | 0.00 | 69 | 1010.1 |
| 20260506134039 | 18 | 215 | 4.8 | 9.7 | 0.00 | 0.00 | 0.00 | 70 | 1010.1 |
| 20260506133100 | 18 | 241 | 1.6 | 6.4 | 0.00 | 0.00 | 0.00 | 72 | 1010.3 |
| 20260506132020 | 17 | 231 | 3.2 | 8.0 | 0.00 | 0.00 | 0.00 | 74 | 1010.6 |
| 20260506131019 | 17 | 209 | 3.2 | 8.0 | 0.00 | 0.00 | 0.00 | 75 | 1010.7 |
| 20260506130018 | 17 | 229 | 3.2 | 17.7 | 0.00 | 0.00 | 0.00 | 76 | 1010.7 |
| 20260506125019 | 17 | 202 | 4.8 | 8.0 | 0.00 | 0.00 | 0.00 | 77 | 1010.6 |
| 20260506124020 | 16 | 223 | 3.2 | 4.8 | 0.00 | 0.00 | 0.00 | 78 | 1010.6 |
| 20260506123020 | 16 | 220 | 3.2 | 6.4 | 0.00 | 0.00 | 0.00 | 79 | 1010.6 |
| 20260506122020 | 16 | 208 | 3.2 | 6.4 | 0.00 | 0.00 | 0.00 | 80 | 1010.6 |
| 20260506121021 | 16 | 220 | 3.2 | 4.8 | 0.00 | 0.00 | 0.00 | 80 | 1010.6 |
| 20260506120020 | 15 | 220 | 4.8 | 6.4 | 0.00 | 0.00 | 0.00 | 81 | 1010.6 |
| 20260506115021 | 15 | 218 | 3.2 | 8.0 | 0.00 | 0.00 | 0.00 | 82 | 1010.8 |
| 20260506114041 | 15 | 235 | 3.2 | 9.7 | 0.00 | 0.00 | 0.00 | 84 | 1010.9 |
| 20260506113016 | 15 | 220 | 3.2 | 6.4 | 0.00 | 0.00 | 0.00 | 84 | 1010.9 |
| 20260506112022 | 15 | 215 | 4.8 | 14.5 | 0.00 | 0.00 | 0.00 | 84 | 1011.0 |
| 20260506111017 | 15 | 244 | 3.2 | 9.7 | 0.00 | 0.00 | 0.00 | 84 | 1010.9 |
| 20260506110022 | 14 | 240 | 4.8 | 6.4 | 0.00 | 0.00 | 0.00 | 85 | 1010.8 |
| 20260506105041 | 14 | 212 | 3.2 | 4.8 | 0.00 | 0.00 | 0.00 | 85 | 1010.9 |
| 20260506104022 | 14 | 259 | 3.2 | 11.3 | 0.00 | 0.00 | 0.00 | 85 | 1010.8 |
| 20260506103022 | 14 | 238 | 3.2 | 6.4 | 0.00 | 0.00 | 0.00 | 85 | 1010.8 |
| 20260506102023 | 14 | 250 | 3.2 | 8.0 | 0.00 | 0.00 | 0.00 | 85 | 1010.7 |
| 20260506101042 | 14 | 233 | 3.2 | 6.4 | 0.00 | 0.00 | 0.00 | 85 | 1010.8 |
| 20260506100022 | 14 | 221 | 1.6 | 4.8 | 0.00 | 0.00 | 0.00 | 85 | 1010.7 |
| 20260506095022 | 14 | 203 | 3.2 | 6.4 | 0.00 | 0.00 | 0.00 | 85 | 1010.6 |
| 20260506094022 | 14 | 266 | 3.2 | 8.0 | 0.00 | 0.00 | 0.00 | 85 | 1010.6 |
| 20260506093023 | 14 | 258 | 3.2 | 4.8 | 0.00 | 0.00 | 0.00 | 84 | 1010.5 |
| 20260506092023 | 14 | 225 | 3.2 | 8.0 | 0.00 | 0.00 | 0.00 | 84 | 1010.7 |
| 20260506091023 | 14 | 218 | 3.2 | 6.4 | 0.00 | 0.00 | 0.00 | 84 | 1010.7 |
| 20260506090024 | 14 | 240 | 3.2 | 6.4 | 0.00 | 0.00 | 0.00 | 84 | 1010.7 |
| 20260506085024 | 14 | 121 | 3.2 | 6.4 | 0.00 | 0.00 | 0.00 | 83 | 1010.7 |
| 20260506084024 | 14 | 240 | 3.2 | 6.4 | 0.00 | 0.00 | 0.00 | 83 | 1010.9 |
| 20260506083020 | 14 | 220 | 3.2 | 8.0 | 0.00 | 0.00 | 0.00 | 83 | 1010.9 |
| 20260506082025 | 14 | 251 | 3.2 | 6.4 | 0.00 | 0.00 | 0.00 | 83 | 1010.9 |
| 20260506081043 | 15 | 240 | 3.2 | 6.4 | 0.00 | 0.00 | 0.00 | 82 | 1010.9 |
| 20260506073020 | 15 | 238 | 4.8 | 9.7 | 0.00 | 0.00 | 0.00 | 81 | 1011.0 |
| 20260506072020 | 15 | 267 | 4.8 | 14.5 | 0.00 | 0.00 | 0.00 | 80 | 1010.9 |
| 20260506071020 | 15 | 225 | 4.8 | 11.3 | 0.00 | 0.00 | 0.00 | 80 | 1010.9 |
| 20260506062025 | 16 | 217 | 3.2 | 6.4 | 0.00 | 0.00 | 0.00 | 77 | 1010.6 |
| 20260506061021 | 16 | 209 | 4.8 | 9.7 | 0.00 | 0.00 | 0.00 | 76 | 1010.7 |
| 20260506051046 | 16 | 230 | 3.2 | 8.0 | 0.00 | 0.00 | 0.00 | 73 | 1011.0 |
| 20260506045023 | 16 | 220 | 4.8 | 8.0 | 0.00 | 0.00 | 0.00 | 72 | 1011.1 |
| 20260506044016 | 16 | 224 | 4.8 | 11.3 | 0.00 | 0.00 | 0.00 | 72 | 1011.1 |
| 20260506043016 | 16 | 222 | 3.2 | 8.0 | 0.00 | 0.00 | 0.00 | 72 | 1011.3 |
| 20260506042038 | 17 | 218 | 3.2 | 9.7 | 0.00 | 0.00 | 0.00 | 71 | 1011.2 |
| 20260506041021 | 17 | 224 | 4.8 | 12.9 | 0.00 | 0.00 | 0.00 | 70 | 1011.2 |
| 20260506040018 | 17 | 221 | 4.8 | 16.1 | 0.00 | 0.00 | 0.00 | 70 | 1011.3 |
| 20260506035018 | 17 | 233 | 3.2 | 16.1 | 0.00 | 0.00 | 0.00 | 70 | 1011.1 |
| 20260506034018 | 17 | 242 | 3.2 | 9.7 | 0.00 | 0.00 | 0.00 | 69 | 1011.1 |
| 20260506033018 | 17 | 230 | 3.2 | 11.3 | 0.00 | 0.00 | 0.00 | 69 | 1011.1 |
| 20260506032019 | 17 | 226 | 3.2 | 8.0 | 0.00 | 0.00 | 0.00 | 69 | 1011.1 |
| 20260506031019 | 16 | 218 | 4.8 | 9.7 | 0.00 | 0.00 | 0.00 | 69 | 1011.0 |
| 20260506030019 | 17 | 213 | 4.8 | 11.3 | 0.00 | 0.00 | 0.00 | 69 | 1011.0 |
| 20260506025019 | 16 | 212 | 4.8 | 9.7 | 0.00 | 0.00 | 0.00 | 69 | 1011.0 |
| 20260506024020 | 16 | 231 | 3.2 | 9.7 | 0.00 | 0.00 | 0.00 | 69 | 1011.0 |
| 20260506023019 | 16 | 216 | 4.8 | 11.3 | 0.00 | 0.00 | 0.00 | 69 | 1011.0 |
| 20260506022019 | 16 | 217 | 3.2 | 9.7 | 0.00 | 0.00 | 0.00 | 69 | 1011.1 |
| 20260506021017 | 16 | 221 | 3.2 | 8.0 | 0.00 | 0.00 | 0.00 | 69 | 1011.0 |
| 20260506020017 | 16 | 227 | 4.8 | 9.7 | 0.00 | 0.00 | 0.00 | 69 | 1010.9 |
| 20260506015020 | 16 | 218 | 3.2 | 12.9 | 0.00 | 0.00 | 0.00 | 69 | 1010.9 |
| 20260506014020 | 16 | 216 | 3.2 | 6.4 | 0.00 | 0.00 | 0.00 | 69 | 1010.9 |
| 20260506013018 | 16 | 224 | 3.2 | 9.7 | 0.00 | 0.00 | 0.00 | 69 | 1010.9 |
| 20260506012018 | 16 | 209 | 4.8 | 11.3 | 0.00 | 0.00 | 0.00 | 68 | 1010.8 |
| 20260506011018 | 16 | 219 | 4.8 | 11.3 | 0.00 | 0.00 | 0.00 | 68 | 1010.7 |
| 20260506010038 | 16 | 217 | 3.2 | 8.0 | 0.00 | 0.00 | 0.00 | 68 | 1010.6 |
| 20260506005018 | 17 | 216 | 3.2 | 8.0 | 0.00 | 0.00 | 0.00 | 67 | 1010.5 |
| 20260506004018 | 17 | 214 | 3.2 | 8.0 | 0.00 | 0.00 | 0.00 | 66 | 1010.4 |